Weather in Burannoye

Russia / Orenburg Oblast     50°58′38″N   54°27′55″E
temp.,
°C
wind,
m/s
gust,
m/s
humid.,
%
clouds,
%
prec.,
mm/h
press.,
hPa
HPBL,
m
27 october, wed
wed2723:00+1w22435 0.0 103016
02:000wsw344868 0.0 103150
05:00−1wsw35525 0.0 103080
08:00−2sw36595 0.0 1030102
11:00+3sw684745 0.0 1030451
14:00+6wsw783793 0.0 1029799
17:00+6wsw69385 0.0 1028782
20:00+3sw4114837 0.0 1027249
28 october, thu
thu2823:00+3sw5114768 0.0 1027259
02:00+2sw5124929 0.0 1026270
05:00+1sw613517 0.0 1025310
08:00+1sw614577 0.0 1024323
11:00+4sw8134878 0.0 1024622
14:00+8wsw9114070 0.0 1023984
17:00+7wsw71143100 0.0 1022952
20:00+5sw51157100 0.0 1022375
29 october, fri
fri2923:00+5sw51263100 0.0 1021343
02:00+4sw51272100 0.0 1020318
05:00+4sw51274100 0.0 1020313
08:00+3sw51186100 0.0 1020268
11:00+6sw6976100 0.0 1022442
14:00+8w566495 0.0 10221144
17:00+7nnw4465100 0.0 1024395
20:00+5nnw2384100 0.1 1027681
30 october, sat
sat3023:00+4n1294100 0.4 1028607
02:00+5ne2190100 0.1 1030586
05:00+4ne3383100 0.1 1031316
08:00+4nne2276100 0.0 1032178
11:00+5nnw1174100 0.0 1034209
14:00+7w246583 0.0 1033479
17:00+7w455749 0.0 1033679
20:00+4wnw356574 0.0 103491
31 october, sun
sun3123:00+3w356491 0.0 1034107
02:00+2w36555 0.0 1034118
05:00+1w47475 0.0 1034137
08:00+1w37445 0.0 1034130
11:00+5w46395 0.0 1035286
14:00+9w56375 0.0 1034540
17:00+9w46415 0.0 1033207
20:00+6w345195 0.0 103450